TimeCST,TemperatureF,Dew PointF,Humidity,Sea Level PressureIn,VisibilityMPH,Wind Direction,Wind SpeedMPH,Gust SpeedMPH,PrecipitationIn,Events,Conditions,WindDirDegrees,DateUTC
12:53 AM,19.0,12.9,77,30.13,10.0,SSW,8.1,-,N/A,,Clear,200,2013-01-05 06:53:00
1:53 AM,19.0,12.9,77,30.10,10.0,SSW,10.4,-,N/A,,Clear,210,2013-01-05 07:53:00
2:53 AM,18.0,12.0,78,30.09,10.0,WSW,11.5,-,N/A,,Clear,240,2013-01-05 08:53:00
3:53 AM,16.0,10.9,81,30.10,10.0,WSW,6.9,-,N/A,,Clear,240,2013-01-05 09:53:00
4:53 AM,15.1,10.0,80,30.09,10.0,SSW,8.1,-,N/A,,Clear,200,2013-01-05 10:53:00
5:53 AM,12.0,8.1,84,30.09,10.0,SSW,8.1,-,N/A,,Clear,210,2013-01-05 11:53:00
6:53 AM,10.9,7.0,84,30.10,10.0,WSW,9.2,-,N/A,,Clear,250,2013-01-05 12:53:00
7:53 AM,10.9,7.0,84,30.12,10.0,West,8.1,-,N/A,,Clear,260,2013-01-05 13:53:00
8:53 AM,14.0,9.0,80,30.13,10.0,West,10.4,-,N/A,,Clear,270,2013-01-05 14:53:00
9:53 AM,17.1,10.0,74,30.13,8.0,West,11.5,-,N/A,,Clear,270,2013-01-05 15:53:00
10:53 AM,24.1,15.1,69,30.12,10.0,WNW,11.5,-,N/A,,Clear,290,2013-01-05 16:53:00
11:53 AM,32.0,19.9,61,30.12,10.0,WNW,11.5,-,N/A,,Clear,300,2013-01-05 17:53:00
12:53 PM,36.0,24.1,62,30.10,10.0,WNW,9.2,-,N/A,,Clear,300,2013-01-05 18:53:00
1:53 PM,39.0,27.0,62,30.09,10.0,NW,15.0,-,N/A,,Clear,310,2013-01-05 19:53:00
2:53 PM,41.0,27.0,57,30.09,10.0,WNW,13.8,-,N/A,,Clear,300,2013-01-05 20:53:00
3:53 PM,39.9,28.0,63,30.12,10.0,WNW,12.7,-,N/A,,Clear,290,2013-01-05 21:53:00
4:53 PM,37.9,27.0,65,30.15,10.0,WNW,13.8,-,N/A,,Clear,300,2013-01-05 22:53:00
5:53 PM,36.0,25.0,64,30.19,10.0,WNW,16.1,-,N/A,,Clear,290,2013-01-05 23:53:00
6:53 PM,34.0,24.1,67,30.22,10.0,WNW,13.8,-,N/A,,Clear,300,2013-01-06 00:53:00
7:53 PM,32.0,21.9,66,30.25,10.0,NW,18.4,-,N/A,,Clear,310,2013-01-06 01:53:00
8:53 PM,32.0,18.0,56,30.27,10.0,NW,21.9,28.8,N/A,,Clear,320,2013-01-06 02:53:00
9:53 PM,28.0,18.0,66,30.29,10.0,NW,13.8,-,N/A,,Clear,320,2013-01-06 03:53:00
10:53 PM,26.1,18.0,71,30.30,10.0,NNW,11.5,-,N/A,,Clear,330,2013-01-06 04:53:00
11:53 PM,23.0,16.0,74,30.31,10.0,NW,6.9,-,N/A,,Clear,320,2013-01-06 05:53:00